KB1WCR Weather Reports


Display with metric or nautical units.
time (UTC)temp
F
wind
direction
speed
MPH
gust
MPH
rain 1hr
in
rain 24hr
in
rain mn
in
humidity
%
barometer
mb
20260831064336 58 12 0.0 0.0 0.00 0.00 0.00 94 1018.4
20260831063832 59 313 0.0 0.0 0.00 0.00 0.00 94 1018.2
20260831063327 59 300 0.0 0.0 0.00 0.00 0.00 93 1018.3
20260831062827 59 294 1.0 1.0 0.00 0.00 0.00 93 1018.2
20260831062322 59 292 0.0 0.0 0.00 0.00 0.00 94 1018.1
20260831061820 59 285 1.0 2.0 0.00 0.00 0.00 95 1018.1
20260831061315 58 299 0.0 0.0 0.00 0.00 0.00 96 1018.2
20260831060811 58 307 0.0 0.0 0.00 0.00 0.00 97 1018.0
20260831060310 58 320 1.0 2.0 0.00 0.00 0.00 98 1017.9
20260831055810 58 259 1.0 1.0 0.00 0.00 0.00 98 1017.8
20260831055306 58 291 0.0 1.0 0.00 0.00 0.00 99 1017.8
20260831054801 57 302 0.0 1.0 0.00 0.00 0.00 99 1017.8
20260831054255 57 338 0.0 0.0 0.00 0.00 0.00 99 1017.9
20260831053754 57 301 0.0 0.0 0.00 0.00 0.00 99 1017.5
20260831053253 57 283 0.0 0.0 0.00 0.00 0.00 99 1017.8
20260831052748 57 298 0.0 0.0 0.00 0.00 0.00 99 1017.6
20260831052247 56 312 0.0 0.0 0.00 0.00 0.00 99 1017.7
20260831051745 57 291 0.0 0.0 0.00 0.00 0.00 99 1017.7
20260831051244 57 291 0.0 0.0 0.00 0.00 0.00 99 1017.5
20260831050739 56 310 0.0 0.0 0.00 0.00 0.00 99 1017.5
20260831050238 57 312 0.0 0.0 0.00 0.00 0.00 99 1017.4
20260831045732 57 307 0.0 0.0 0.00 0.00 0.00 99 1017.4
20260831045227 58 313 0.0 0.0 0.00 0.00 0.00 99 1017.4
20260831044722 58 302 0.0 0.0 0.00 0.00 0.00 98 1017.3
20260831044217 58 304 0.0 0.0 0.00 0.00 0.00 97 1017.3
20260831043713 59 312 0.0 0.0 0.00 0.00 0.00 96 1017.2
20260831043208 59 318 0.0 0.0 0.00 0.00 0.00 96 1017.2
20260831042707 59 292 0.0 0.0 0.00 0.00 0.00 96 1017.2
20260831042202 60 310 0.0 0.0 0.00 0.00 0.00 95 1017.3
20260831041657 60 310 0.0 0.0 0.00 0.00 0.00 94 1017.3
20260831041156 60 279 0.0 0.0 0.00 0.00 0.00 94 1017.2
20260831040652 61 298 0.0 0.0 0.00 0.00 0.00 94 1017.3
20260831040150 61 287 0.0 0.0 0.00 0.00 0.00 93 1017.3
20260831035649 62 265 0.0 0.0 0.00 0.00 0.00 92 1017.3
20260831035144 62 333 3.0 3.0 0.00 0.00 0.00 92 1017.2
20260831034642 62 299 1.0 1.0 0.00 0.00 0.00 91 1017.3
20260831034138 62 290 0.0 1.0 0.00 0.00 0.00 90 1017.5
20260831033634 63 297 1.0 1.0 0.00 0.00 0.00 89 1017.2
20260831033129 63 279 0.0 0.0 0.00 0.00 0.00 89 1017.1
20260831032629 63 313 0.0 0.0 0.00 0.00 0.00 89 1017.1
20260831032124 63 300 0.0 0.0 0.00 0.00 0.00 88 1017.0
20260831031619 63 308 0.0 0.0 0.00 0.00 0.00 88 1016.9
20260831031118 63 299 0.0 0.0 0.00 0.00 0.00 87 1017.0
20260831030617 63 298 0.0 0.0 0.00 0.00 0.00 87 1017.3
20260831030116 63 316 0.0 0.0 0.00 0.00 0.00 87 1017.4
20260831025615 64 307 0.0 0.0 0.00 0.00 0.00 86 1017.2
20260831025110 64 290 0.0 0.0 0.00 0.00 0.00 86 1017.3
20260831024606 64 311 1.0 2.0 0.00 0.00 0.00 87 1017.4
20260831024105 64 289 1.0 1.0 0.00 0.00 0.00 86 1017.5
20260831023603 64 356 1.0 2.0 0.00 0.00 0.00 85 1017.7
20260831023102 64 309 2.0 3.0 0.00 0.00 0.00 85 1017.6
20260831022557 64 356 2.0 3.0 0.00 0.00 0.00 84 1017.5
20260831022052 65 65 4.0 6.0 0.00 0.00 0.00 83 1017.4
20260831021551 66 38 3.0 4.0 0.00 0.00 0.00 81 1017.7
20260831021047 66 8 1.0 1.0 0.00 0.00 0.00 79 1017.3
20260831020542 67 278 2.0 3.0 0.00 0.00 0.00 76 1017.1
20260831020037 68 305 7.0 9.0 0.00 0.00 0.00 75 1017.2
20260831015533 68 23 4.0 7.0 0.00 0.00 0.00 75 1016.9
20260831015027 68 288 1.0 2.0 0.00 0.00 0.00 78 1016.9
20260831014522 65 354 1.0 1.0 0.00 0.00 0.00 90 1016.4
20260831014018 65 310 0.0 1.0 0.00 0.00 0.00 91 1016.2
20260831013514 65 302 0.0 0.0 0.00 0.00 0.00 91 1016.1
20260831013008 65 318 0.0 0.0 0.00 0.00 0.00 91 1016.0
20260831012502 65 313 0.0 0.0 0.00 0.00 0.00 91 1015.7
20260831011956 65 316 0.0 0.0 0.00 0.00 0.00 91 1015.8
20260831011451 65 314 0.0 0.0 0.00 0.00 0.00 90 1015.8
20260831010948 65 316 0.0 0.0 0.00 0.00 0.00 90 1015.7
20260831010447 65 304 0.0 0.0 0.00 0.00 0.00 90 1015.6
20260831005943 65 314 0.0 0.0 0.00 0.00 0.00 90 1015.6
20260831005439 65 316 0.0 0.0 0.00 0.00 0.00 89 1015.4
20260831004938 66 311 0.0 0.0 0.00 0.00 0.00 87 1015.5
20260831004435 66 308 0.0 0.0 0.00 0.00 0.00 86 1015.4
20260831003930 67 308 0.0 0.0 0.00 0.00 0.00 86 1015.4
20260831003426 68 308 0.0 0.0 0.00 0.00 0.00 84 1015.2
20260831002925 68 308 0.0 0.0 0.00 0.00 0.00 82 1015.4
20260831002424 68 300 0.0 0.0 0.00 0.00 0.00 82 1015.4
20260831001920 68 316 0.0 0.0 0.00 0.00 0.00 82 1015.3
20260831001415 68 310 0.0 0.0 0.00 0.00 0.00 82 1015.4
20260831000913 69 300 0.0 0.0 0.00 0.00 0.00 82 1015.2
20260831000410 69 305 0.0 0.0 0.00 0.00 0.00 81 1015.0
20260830235906 69 307 0.0 0.0 0.00 0.00 0.00 80 1015.1
20260830235401 69 309 0.0 0.0 0.00 0.00 0.00 79 1015.0
20260830234856 70 303 0.0 0.0 0.00 0.00 0.00 78 1014.9
20260830234351 70 310 0.0 0.0 0.00 0.00 0.00 78 1014.9
20260830233848 70 303 0.0 0.0 0.00 0.00 0.00 77 1015.1
20260830233343 70 305 0.0 0.0 0.00 0.00 0.00 76 1015.0
20260830232838 71 306 0.0 0.0 0.00 0.00 0.00 75 1015.0
20260830232334 71 301 1.0 1.0 0.00 0.00 0.00 74 1015.0
20260830231830 71 294 0.0 0.0 0.00 0.00 0.00 74 1015.0
20260830231325 71 318 0.0 0.0 0.00 0.00 0.00 75 1014.9
20260830230824 72 289 2.0 4.0 0.00 0.00 0.00 72 1015.1
20260830230320 71 302 2.0 3.0 0.00 0.00 0.00 72 1014.9
20260830225820 71 301 1.0 2.0 0.00 0.00 0.00 73 1014.8
20260830225314 71 301 0.0 0.0 0.00 0.00 0.00 74 1015.1
20260830224809 71 286 0.0 1.0 0.00 0.00 0.00 73 1014.9
20260830224303 71 284 1.0 1.0 0.00 0.00 0.00 73 1014.9
20260830223800 71 273 0.0 0.0 0.00 0.00 0.00 75 1015.0
20260830223255 72 294 0.0 0.0 0.00 0.00 0.00 74 1014.9
20260830222749 71 289 1.0 1.0 0.00 0.00 0.00 73 1015.0
20260830222246 71 294 0.0 0.0 0.00 0.00 0.00 74 1015.2
20260830221740 72 268 0.0 0.0 0.00 0.00 0.00 75 1015.2
20260830221238 72 293 0.0 0.0 0.00 0.00 0.00 75 1014.9
20260830220733 72 284 0.0 0.0 0.00 0.00 0.00 75 1014.7
20260830220231 72 317 0.0 1.0 0.00 0.00 0.00 75 1015.1
20260830215730 72 294 0.0 0.0 0.00 0.00 0.00 75 1014.9
20260830215225 72 269 1.0 2.0 0.00 0.00 0.00 75 1015.1
20260830214720 72 294 1.0 1.0 0.00 0.00 0.00 76 1015.0
20260830214220 72 280 1.0 1.0 0.00 0.00 0.00 76 1015.0
20260830213719 72 280 0.0 1.0 0.00 0.00 0.00 77 1014.9
20260830213219 72 290 0.0 1.0 0.00 0.00 0.00 77 1015.2
20260830212715 72 272 0.0 0.0 0.00 0.00 0.00 77 1014.9
20260830212211 73 288 0.0 0.0 0.00 0.00 0.00 78 1014.9
20260830211706 73 289 0.0 0.0 0.00 0.00 0.00 78 1015.2
20260830211204 73 297 0.0 0.0 0.00 0.00 0.00 77 1015.2
20260830210700 73 289 0.0 0.0 0.00 0.00 0.00 78 1015.2
20260830210200 73 245 0.0 0.0 0.00 0.00 0.00 76 1015.2
20260830205657 74 273 0.0 1.0 0.00 0.00 0.00 77 1015.3
20260830205153 73 288 0.0 0.0 0.00 0.00 0.00 77 1015.1
20260830204652 74 274 1.0 1.0 0.00 0.00 0.00 77 1015.1
20260830204151 73 264 0.0 0.0 0.00 0.00 0.00 78 1015.2
20260830203648 73 263 0.0 1.0 0.00 0.00 0.00 81 1015.2
20260830203143 72 284 0.0 0.0 0.00 0.00 0.00 83 1015.2
20260830202643 72 286 0.0 0.0 0.00 0.00 0.00 83 1015.3
20260830202138 71 291 0.0 0.0 0.00 0.00 0.00 84 1015.4
20260830201638 71 286 0.0 0.0 0.00 0.00 0.00 85 1015.4
20260830201133 71 308 0.0 0.0 0.00 0.00 0.00 84 1015.5
20260830200628 71 301 0.0 0.0 0.00 0.00 0.00 85 1015.5
20260830200127 71 296 0.0 0.0 0.00 0.00 0.00 85 1015.4
20260830195623 70 290 0.0 0.0 0.00 0.00 0.00 84 1015.6
20260830195120 71 288 0.0 0.0 0.00 0.00 0.00 84 1015.7
20260830194615 71 239 1.0 2.0 0.00 0.00 0.00 84 1015.7
20260830194114 71 283 1.0 1.0 0.00 0.00 0.00 85 1015.7
20260830193609 71 298 1.0 1.0 0.00 0.00 0.00 85 1015.6
20260830193104 71 284 0.0 0.0 0.00 0.00 0.00 86 1015.6
20260830192600 70 274 0.0 0.0 0.00 0.00 0.00 86 1016.0
20260830192059 70 266 1.0 1.0 0.00 0.00 0.00 85 1015.9
20260830191554 70 214 1.0 2.0 0.00 0.00 0.00 86 1016.0
20260830191044 70 259 1.0 2.0 0.00 0.00 0.00 87 1016.0
20260830190539 70 286 1.0 1.0 0.00 0.00 0.00 87 1016.3
20260830190034 70 236 1.0 1.0 0.00 0.00 0.00 87 1016.3
20260830185527 70 245 1.0 2.0 0.00 0.00 0.00 87 1016.5
20260830185023 70 297 1.0 1.0 0.00 0.00 0.00 87 1016.3
20260830184522 70 256 1.0 1.0 0.00 0.00 0.00 87 1016.4
20260830184012 70 290 0.0 0.0 0.00 0.00 0.00 87 1016.7
20260830183512 70 254 1.0 2.0 0.00 0.00 0.00 85 1016.7
20260830183008 70 259 1.0 1.0 0.00 0.00 0.00 85 1016.5
20260830182503 71 294 0.0 0.0 0.00 0.00 0.00 83 1016.5
20260830181959 71 293 0.0 0.0 0.00 0.00 0.00 85 1016.8
20260830181454 70 294 0.0 0.0 0.00 0.00 0.00 86 1016.9
20260830180949 71 283 0.0 0.0 0.00 0.00 0.00 81 1016.9
20260830180448 71 313 0.0 1.0 0.00 0.00 0.00 81 1017.1
20260830175946 71 251 1.0 1.0 0.00 0.00 0.00 83 1017.0
20260830175441 71 323 2.0 2.0 0.00 0.00 0.00 78 1017.1
20260830174936 71 299 2.0 2.0 0.00 0.00 0.00 78 1017.0
20260830174432 72 316 1.0 1.0 0.00 0.00 0.00 78 1017.2
20260830173921 72 253 3.0 3.0 0.00 0.00 0.00 76 1017.1
20260830173417 72 310 2.0 2.0 0.00 0.00 0.00 77 1017.3
20260830172913 72 310 1.0 1.0 0.00 0.00 0.00 76 1017.4
20260830172409 72 282 0.0 0.0 0.00 0.00 0.00 77 1017.3
20260830171904 73 277 1.0 1.0 0.00 0.00 0.00 74 1017.4
20260830171359 73 292 0.0 0.0 0.00 0.00 0.00 74 1017.5
20260830170859 73 230 2.0 3.0 0.00 0.00 0.00 71 1017.3
20260830170354 74 272 0.0 1.0 0.00 0.00 0.00 72 1017.2
20260830165852 74 286 0.0 0.0 0.00 0.00 0.00 73 1017.4
20260830165349 74 255 1.0 1.0 0.00 0.00 0.00 72 1017.3
20260830164845 74 291 0.0 1.0 0.00 0.00 0.00 71 1017.1
20260830164340 74 281 0.0 0.0 0.00 0.00 0.00 72 1017.2
20260830163836 75 235 1.0 1.0 0.00 0.00 0.00 69 1017.2
20260830163331 75 256 1.0 1.0 0.00 0.00 0.00 69 1017.3
20260830162826 76 289 0.0 0.0 0.00 0.00 0.00 69 1017.3
20260830162323 76 273 1.0 1.0 0.00 0.00 0.00 67 1017.3
20260830161818 76 269 0.0 0.0 0.00 0.00 0.00 67 1017.3
20260830161317 76 285 1.0 1.0 0.00 0.00 0.00 68 1017.5
20260830160812 76 282 1.0 1.0 0.00 0.00 0.00 66 1017.4
20260830160307 76 299 0.0 0.0 0.00 0.00 0.00 66 1017.6
20260830155803 77 252 1.0 2.0 0.00 0.00 0.00 68 1017.6
20260830155259 76 256 1.0 1.0 0.00 0.00 0.00 69 1017.5
20260830154754 77 17 2.0 2.0 0.00 0.00 0.00 65 1017.5
20260830154249 77 294 0.0 0.0 0.00 0.00 0.00 66 1017.5
20260830153746 76 275 0.0 1.0 0.00 0.00 0.00 67 1017.4
20260830153241 76 288 0.0 1.0 0.00 0.00 0.00 68 1017.7
20260830152739 76 236 2.0 3.0 0.00 0.00 0.00 65 1017.8
20260830152234 77 252 1.0 2.0 0.00 0.00 0.00 65 1017.6
20260830151728 76 305 1.0 1.0 0.00 0.00 0.00 66 1017.9
20260830151228 75 242 1.0 2.0 0.00 0.00 0.00 70 1017.7
20260830150723 74 246 1.0 2.0 0.00 0.00 0.00 68 1017.8
20260830150217 74 234 2.0 2.0 0.00 0.00 0.00 69 1017.9
20260830145712 75 301 1.0 1.0 0.00 0.00 0.00 70 1018.1
20260830145207 74 353 1.0 1.0 0.00 0.00 0.00 71 1018.1
20260830144702 74 299 1.0 1.0 0.00 0.00 0.00 72 1018.0
20260830144158 75 229 1.0 2.0 0.00 0.00 0.00 68 1018.3
20260830143654 76 232 1.0 2.0 0.00 0.00 0.00 68 1018.1
20260830143152 75 63 1.0 1.0 0.00 0.00 0.00 69 1018.1
20260830142647 74 269 0.0 0.0 0.00 0.00 0.00 70 1018.3
20260830142142 74 239 2.0 2.0 0.00 0.00 0.00 72 1018.3
20260830141637 73 292 0.0 1.0 0.00 0.00 0.00 72 1018.4
20260830141132 73 310 1.0 1.0 0.00 0.00 0.00 72 1018.2
20260830140627 72 274 0.0 1.0 0.00 0.00 0.00 74 1018.3
20260830140121 71 277 0.0 0.0 0.00 0.00 0.00 75 1018.4
20260830135616 70 277 0.0 0.0 0.00 0.00 0.00 76 1018.3
20260830135111 70 245 0.0 0.0 0.00 0.00 0.00 75 1018.6
20260830134606 71 315 2.0 3.0 0.00 0.00 0.00 73 1018.2
20260830134101 69 269 0.0 0.0 0.00 0.00 0.00 78 1018.3
20260830133557 68 314 0.0 0.0 0.00 0.00 0.00 79 1018.5
20260830133052 67 266 0.0 0.0 0.00 0.00 0.00 80 1018.5
20260830132548 66 302 0.0 0.0 0.00 0.00 0.00 84 1018.6
20260830132043 66 307 0.0 0.0 0.00 0.00 0.00 84 1018.5
20260830131542 66 270 0.0 0.0 0.00 0.00 0.00 83 1018.3
20260830131037 65 296 0.0 0.0 0.00 0.00 0.00 86 1018.5
20260830130532 64 284 0.0 0.0 0.00 0.00 0.00 87 1018.4
20260830130027 64 286 0.0 0.0 0.00 0.00 0.00 86 1018.5
20260830125522 63 289 0.0 0.0 0.00 0.00 0.00 86 1018.4
20260830125021 62 288 0.0 0.0 0.00 0.00 0.00 88 1018.8
20260830124520 62 334 1.0 1.0 0.00 0.00 0.00 90 1018.6
20260830124016 62 291 0.0 0.0 0.00 0.00 0.00 92 1018.8
20260830123513 61 309 0.0 0.0 0.00 0.00 0.00 92 1018.7
20260830123008 60 287 0.0 0.0 0.00 0.00 0.00 94 1019.0
20260830122505 60 317 0.0 0.0 0.00 0.00 0.00 95 1018.7
20260830122000 59 318 0.0 0.0 0.00 0.00 0.00 96 1018.8
20260830121455 59 310 0.0 0.0 0.00 0.00 0.00 97 1018.6
20260830120949 59 304 0.0 0.0 0.00 0.00 0.00 96 1018.9
20260830120445 58 316 0.0 0.0 0.00 0.00 0.00 98 1018.7
20260830115941 57 300 0.0 0.0 0.00 0.00 0.00 98 1018.9
20260830115431 57 286 0.0 0.0 0.00 0.00 0.00 99 1018.9
20260830114926 57 287 0.0 0.0 0.00 0.00 0.00 99 1018.7
20260830114423 57 296 0.0 0.0 0.00 0.00 0.00 99 1018.9
20260830113923 57 298 0.0 0.0 0.00 0.00 0.00 99 1019.0
20260830113418 57 294 0.0 0.0 0.00 0.00 0.00 99 1019.1
20260830112914 57 298 0.0 0.0 0.00 0.00 0.00 99 1018.9
20260830112410 56 313 0.0 0.0 0.00 0.00 0.00 99 1018.9
20260830111905 56 350 0.0 0.0 0.00 0.00 0.00 99 1018.9
20260830111400 56 324 0.0 0.0 0.00 0.00 0.00 99 1018.8
20260830110856 55 315 0.0 0.0 0.00 0.00 0.00 99 1018.8
20260830110352 55 310 0.0 0.0 0.00 0.00 0.00 99 1018.8
20260830105850 54 315 0.0 0.0 0.00 0.00 0.00 99 1018.6
20260830105347 54 305 0.0 0.0 0.00 0.00 0.00 99 1018.7
20260830104843 53 300 0.0 0.0 0.00 0.00 0.00 99 1018.7
20260830104340 53 301 0.0 0.0 0.00 0.00 0.00 99 1018.8
20260830103838 52 308 0.0 0.0 0.00 0.00 0.00 99 1018.9
20260830103335 51 308 0.0 0.0 0.00 0.00 0.00 99 1019.0
20260830102832 51 304 0.0 0.0 0.00 0.00 0.00 99 1019.2
20260830102329 51 313 0.0 0.0 0.00 0.00 0.00 99 1019.3
20260830101825 50 314 0.0 0.0 0.00 0.00 0.00 99 1019.0
20260830101319 50 309 0.0 0.0 0.00 0.00 0.00 99 1019.3
20260830100818 50 311 0.0 0.0 0.00 0.00 0.00 99 1019.3
20260830100314 50 317 0.0 0.0 0.00 0.00 0.00 99 1019.2
20260830095812 50 337 0.0 0.0 0.00 0.00 0.00 99 1019.0
20260830095308 50 338 0.0 0.0 0.00 0.00 0.00 99 1019.2
20260830094804 50 313 0.0 0.0 0.00 0.00 0.00 99 1019.2
20260830094300 50 332 0.0 0.0 0.00 0.00 0.00 99 1019.2
20260830093755 50 332 0.0 0.0 0.00 0.00 0.00 99 1019.3
20260830093250 50 332 0.0 0.0 0.00 0.00 0.00 99 1019.5
20260830092745 49 332 0.0 0.0 0.00 0.00 0.00 99 1019.5
20260830092242 49 332 0.0 0.0 0.00 0.00 0.00 99 1019.4
20260830091738 49 332 0.0 0.0 0.00 0.00 0.00 99 1019.4
20260830091237 49 332 0.0 0.0 0.00 0.00 0.00 99 1019.5
20260830090736 49 332 0.0 0.0 0.00 0.00 0.00 99 1019.5
20260830090232 49 332 0.0 0.0 0.00 0.00 0.00 99 1019.6
20260830085731 49 332 0.0 0.0 0.00 0.00 0.00 99 1019.5
20260830085227 49 332 0.0 0.0 0.00 0.00 0.00 99 1019.4
20260830084722 49 332 0.0 0.0 0.00 0.00 0.00 99 1019.5
20260830084218 49 332 0.0 0.0 0.00 0.00 0.00 99 1019.4
20260830083713 50 332 0.0 0.0 0.00 0.00 0.00 99 1019.4
20260830083209 50 332 0.0 0.0 0.00 0.00 0.00 99 1019.3
20260830082708 49 332 0.0 0.0 0.00 0.00 0.00 99 1019.7
20260830082203 49 332 0.0 0.0 0.00 0.00 0.00 99 1019.4
20260830081659 50 332 0.0 0.0 0.00 0.00 0.00 99 1019.5
20260830081158 50 332 0.0 0.0 0.00 0.00 0.00 99 1019.6
20260830080653 50 332 0.0 0.0 0.00 0.00 0.00 99 1019.6
20260830080149 50 332 0.0 0.0 0.00 0.00 0.00 99 1019.5
20260830075648 50 332 0.0 0.0 0.00 0.00 0.00 99 1019.4
20260830075143 49 332 0.0 0.0 0.00 0.00 0.00 99 1019.3
20260830074639 49 332 0.0 0.0 0.00 0.00 0.00 99 1019.3
20260830074135 49 332 0.0 0.0 0.00 0.00 0.00 99 1019.8
20260830073631 49 332 0.0 0.0 0.00 0.00 0.00 99 1019.6
20260830073126 50 332 0.0 0.0 0.00 0.00 0.00 99 1019.6
20260830072621 50 332 0.0 0.0 0.00 0.00 0.00 99 1019.6
20260830072121 49 332 0.0 0.0 0.00 0.00 0.00 99 1019.3
20260830071617 49 332 0.0 0.0 0.00 0.00 0.00 99 1019.6
20260830071114 50 332 0.0 0.0 0.00 0.00 0.00 99 1019.6
20260830070609 50 332 0.0 0.0 0.00 0.00 0.00 99 1019.7
20260830070104 50 332 0.0 0.0 0.00 0.00 0.00 99 1019.5
20260830065603 50 332 0.0 0.0 0.00 0.00 0.00 99 1019.4
20260830065102 50 332 0.0 0.0 0.00 0.00 0.00 99 1019.5